When you browse on this site, cookies collect data to enhance your experience and personalize the content and advertising you see.
Visit our Privacy Policy to learn more. By continuing to use the site, you agree to this use of cookies and data.
  • In Austria
  • List of Countries
  • For 7 days
  • Water Temperature
  • Weather Map
  • News
  • Weather Widgets
  • user-avatar
    Login

    Hourly Weather Santander de Quilichao

    Today, 22 September, Sunday

    Time Temperature Precipitation Wind Pressure Humidity
    00:00 +21°C° 0.1 mm 1 mps 672 mmHg 92%
    01:00 +20°C° 0.1 mm 1 mps 672 mmHg 92%
    02:00 +20°C° 0.1 mm 1 mps 672 mmHg 91%
    03:00 +20°C° 0.1 mm 1 mps 671 mmHg 91%
    04:00 +18°C° 0.1 mm 0 mps 671 mmHg 91%
    05:00 +18°C° 0 mm 0 mps 672 mmHg 90%
    06:00 +19°C° 0 mm 0 mps 672 mmHg 89%
    07:00 +19°C° 0 mm 0 mps 673 mmHg 87%
    08:00 +24°C° 0.1 mm 1 mps 673 mmHg 80%
    09:00 +26°C° 0.1 mm 1 mps 674 mmHg 73%
    10:00 +28°C° 0.1 mm 1 mps 675 mmHg 66%
    11:00 +28°C° 0.5 mm 1 mps 674 mmHg 65%
    12:00 +29°C° 0.5 mm 1 mps 673 mmHg 64%
    13:00 +29°C° 0.5 mm 1 mps 673 mmHg 64%
    14:00 +28°C° 1.4 mm 1 mps 672 mmHg 69%
    15:00 +27°C° 1.4 mm 1 mps 671 mmHg 74%
    16:00 +27°C° 1.4 mm 1 mps 671 mmHg 79%
    17:00 +25°C° 1.2 mm 1 mps 671 mmHg 83%
    18:00 +24°C° 1.2 mm 1 mps 672 mmHg 87%
    19:00 +23°C° 1.2 mm 1 mps 672 mmHg 90%
    20:00 +22°C° 0.8 mm 1 mps 672 mmHg 91%
    21:00 +22°C° 0.8 mm 1 mps 672 mmHg 91%
    22:00 +21°C° 0.8 mm 1 mps 673 mmHg 92%
    23:00 +21°C° 0.5 mm 1 mps 672 mmHg 92%

    Tomorrow, 23 September, Monday

    Time Temperature Precipitation Wind Pressure Humidity
    00:00 +21°C° 0.5 mm 1 mps 672 mmHg 92%
    01:00 +20°C° 0.5 mm 1 mps 672 mmHg 92%
    02:00 +20°C° 0.2 mm 1 mps 672 mmHg 92%
    03:00 +20°C° 0.2 mm 1 mps 672 mmHg 91%
    04:00 +20°C° 0.2 mm 1 mps 672 mmHg 91%
    05:00 +21°C° 0 mm 1 mps 672 mmHg 90%
    06:00 +21°C° 0 mm 1 mps 673 mmHg 88%
    07:00 +19°C° 0 mm 0 mps 673 mmHg 87%
    08:00 +24°C° 0 mm 1 mps 674 mmHg 79%
    09:00 +26°C° 0 mm 1 mps 674 mmHg 70%
    10:00 +28°C° 0 mm 1 mps 675 mmHg 62%
    11:00 +29°C° 0.3 mm 1 mps 674 mmHg 60%
    12:00 +30°C° 0.3 mm 1 mps 674 mmHg 58%
    13:00 +30°C° 0.3 mm 1 mps 673 mmHg 56%
    14:00 +29°C° 0.6 mm 1 mps 672 mmHg 60%
    15:00 +29°C° 0.6 mm 1 mps 672 mmHg 65%
    16:00 +28°C° 0.6 mm 1 mps 671 mmHg 70%
    17:00 +26°C° 0.9 mm 1 mps 671 mmHg 77%
    18:00 +24°C° 0.9 mm 1 mps 671 mmHg 83%
    19:00 +22°C° 0.9 mm 1 mps 671 mmHg 90%
    20:00 +22°C° 0.4 mm 1 mps 671 mmHg 89%
    21:00 +21°C° 0.4 mm 1 mps 672 mmHg 89%
    22:00 +21°C° 0.4 mm 1 mps 672 mmHg 88%
    23:00 +21°C° 0 mm 1 mps 672 mmHg 87%

    Day after tomorrow, 24 September, Tuesday

    Time Temperature Precipitation Wind Pressure Humidity
    00:00 +20°C° 0 mm 1 mps 672 mmHg 86%
    01:00 +20°C° 0 mm 1 mps 672 mmHg 85%
    02:00 +20°C° 0 mm 1 mps 671 mmHg 85%
    03:00 +20°C° 0 mm 1 mps 671 mmHg 84%
    04:00 +20°C° 0 mm 1 mps 671 mmHg 83%
    05:00 +20°C° 0 mm 1 mps 672 mmHg 82%
    06:00 +21°C° 0 mm 1 mps 672 mmHg 81%
    07:00 +21°C° 0 mm 1 mps 673 mmHg 79%
    08:00 +23°C° 0 mm 1 mps 673 mmHg 73%
    09:00 +26°C° 0 mm 1 mps 674 mmHg 67%
    10:00 +28°C° 0 mm 1 mps 675 mmHg 60%
    11:00 +29°C° 0.1 mm 1 mps 674 mmHg 58%
    12:00 +30°C° 0.1 mm 1 mps 673 mmHg 55%
    13:00 +31°C° 0.1 mm 1 mps 673 mmHg 52%
    14:00 +30°C° 0.8 mm 1 mps 672 mmHg 58%
    15:00 +29°C° 0.8 mm 1 mps 672 mmHg 64%
    16:00 +28°C° 0.8 mm 1 mps 671 mmHg 70%
    17:00 +26°C° 1.7 mm 1 mps 671 mmHg 78%
    18:00 +24°C° 1.7 mm 1 mps 671 mmHg 85%
    19:00 +21°C° 1.7 mm 0 mps 672 mmHg 93%
    20:00 +20°C° 1.2 mm 0 mps 672 mmHg 93%
    21:00 +20°C° 1.2 mm 0 mps 672 mmHg 93%
    22:00 +20°C° 1.2 mm 0 mps 673 mmHg 94%
    23:00 +19°C° 0.8 mm 0 mps 673 mmHg 94%

    25 September, Wednesday

    Time Temperature Precipitation Wind Pressure Humidity
    00:00 +19°C° 0.8 mm 0 mps 672 mmHg 94%
    01:00 +19°C° 0.8 mm 0 mps 672 mmHg 94%
    02:00 +19°C° 0.6 mm 0 mps 672 mmHg 94%
    03:00 +19°C° 0.6 mm 0 mps 672 mmHg 93%
    04:00 +19°C° 0.6 mm 0 mps 672 mmHg 93%
    05:00 +19°C° 0.2 mm 0 mps 672 mmHg 92%
    06:00 +19°C° 0.2 mm 0 mps 673 mmHg 91%
    07:00 +20°C° 0.2 mm 0 mps 673 mmHg 89%
    08:00 +22°C° 0.1 mm 0 mps 674 mmHg 83%
    09:00 +24°C° 0.1 mm 0 mps 674 mmHg 76%
    10:00 +28°C° 0.1 mm 1 mps 675 mmHg 69%
    11:00 +27°C° 1.2 mm 1 mps 674 mmHg 71%
    12:00 +27°C° 1.2 mm 1 mps 673 mmHg 73%
    13:00 +27°C° 1.2 mm 1 mps 673 mmHg 75%
    14:00 +26°C° 1 mm 1 mps 672 mmHg 78%
    15:00 +26°C° 1 mm 1 mps 672 mmHg 82%
    16:00 +25°C° 1 mm 1 mps 671 mmHg 85%
    17:00 +24°C° 0.6 mm 1 mps 671 mmHg 88%
    18:00 +21°C° 0.6 mm 0 mps 671 mmHg 91%
    19:00 +20°C° 0.6 mm 0 mps 671 mmHg 95%
    20:00 +20°C° 0.1 mm 0 mps 672 mmHg 94%
    21:00 +20°C° 0.1 mm 0 mps 672 mmHg 93%
    22:00 +21°C° 0.1 mm 1 mps 673 mmHg 93%
    23:00 +19°C° 0 mm 0 mps 672 mmHg 92%

    26 September, Thursday

    Time Temperature Precipitation Wind Pressure Humidity
    00:00 +19°C° 0 mm 0 mps 672 mmHg 92%
    01:00 +18°C° 0 mm 0 mps 672 mmHg 92%
    02:00 +19°C° 0 mm 0 mps 672 mmHg 92%
    03:00 +19°C° 0 mm 0 mps 671 mmHg 91%
    04:00 +19°C° 0 mm 0 mps 671 mmHg 90%
    05:00 +19°C° 0 mm 0 mps 672 mmHg 89%
    06:00 +19°C° 0 mm 0 mps 672 mmHg 88%
    07:00 +20°C° 0 mm 0 mps 673 mmHg 88%
    08:00 +22°C° 0 mm 0 mps 673 mmHg 80%
    09:00 +26°C° 0 mm 1 mps 674 mmHg 72%
    10:00 +28°C° 0 mm 1 mps 674 mmHg 64%
    11:00 +29°C° 0.5 mm 1 mps 674 mmHg 62%
    12:00 +30°C° 0.5 mm 1 mps 673 mmHg 60%
    13:00 +30°C° 0.5 mm 1 mps 672 mmHg 59%
    14:00 +30°C° 0.8 mm 1 mps 672 mmHg 62%
    15:00 +29°C° 0.8 mm 1 mps 671 mmHg 66%
    16:00 +28°C° 0.8 mm 1 mps 671 mmHg 70%
    17:00 +26°C° 1 mm 1 mps 671 mmHg 76%
    18:00 +25°C° 1 mm 1 mps 671 mmHg 83%
    19:00 +23°C° 1 mm 1 mps 671 mmHg 89%
    20:00 +22°C° 0.3 mm 1 mps 671 mmHg 89%
    21:00 +22°C° 0.3 mm 1 mps 672 mmHg 89%
    22:00 +21°C° 0.3 mm 1 mps 672 mmHg 89%
    23:00 +21°C° 0 mm 1 mps 672 mmHg 89%

    27 September, Friday

    Time Temperature Precipitation Wind Pressure Humidity
    00:00 +20°C° 0 mm 1 mps 672 mmHg 88%
    01:00 +20°C° 0 mm 1 mps 672 mmHg 87%
    02:00 +20°C° 0 mm 1 mps 671 mmHg 86%
    03:00 +20°C° 0 mm 1 mps 671 mmHg 85%
    04:00 +20°C° 0 mm 1 mps 671 mmHg 84%
    05:00 +20°C° 0 mm 1 mps 672 mmHg 83%
    06:00 +21°C° 0 mm 1 mps 672 mmHg 82%
    07:00 +21°C° 0 mm 1 mps 673 mmHg 80%
    08:00 +24°C° 0 mm 1 mps 673 mmHg 73%
    09:00 +26°C° 0 mm 1 mps 674 mmHg 66%
    10:00 +29°C° 0 mm 1 mps 674 mmHg 60%
    11:00 +29°C° 0.2 mm 1 mps 674 mmHg 57%
    12:00 +30°C° 0.2 mm 1 mps 673 mmHg 55%
    13:00 +31°C° 0.2 mm 1 mps 673 mmHg 53%
    14:00 +30°C° 0.7 mm 1 mps 672 mmHg 57%
    15:00 +29°C° 0.7 mm 1 mps 672 mmHg 61%
    16:00 +29°C° 0.7 mm 1 mps 671 mmHg 66%
    17:00 +27°C° 1.2 mm 1 mps 671 mmHg 74%
    18:00 +25°C° 1.2 mm 1 mps 671 mmHg 82%
    19:00 +23°C° 1.2 mm 1 mps 672 mmHg 90%
    20:00 +22°C° 1.2 mm 1 mps 672 mmHg 91%
    21:00 +22°C° 1.2 mm 1 mps 672 mmHg 91%
    22:00 +21°C° 1.2 mm 1 mps 672 mmHg 92%
    23:00 +21°C° 0.4 mm 1 mps 672 mmHg 92%
    Show more